Location: Newark
(52.8300°N, 8.0000°E)
Time: 12:14:07
(UTC+00:00)

STARLINK-1102 - Pass Details

Date: 04 February 2020
Orbit: 525 x 527 km, 53.0° (Epoch: 17 February)

Event Time Altitude Azimuth Distance (km) Brightness Sun altitude
Rises 17:01:11 0° 284° (WNW) 2,654 8.2 -6.9°
Reaches altitude 10° 17:03:58 10° 264° (W) 1,759 7.8 -7.3°
Maximum altitude 17:06:36 17° 222° (SW) 1,359 6.6 -7.7°
Drops below altitude 10° 17:09:13 10° 181° (S) 1,747 6.4 -8.1°
Sets 17:11:59 0° 161° (SSE) 2,628 7.1 -8.5°
